Home   Weather   Boone   Past weeks
Flag for USA

Past Weather in Boone, North Carolina, USA — Yesterday and Last 2 Weeks

Now
42 °F

Quite cool.


Feels Like: 42 °F
Forecast: 42 / 14 °F
Wind: No wind

Location: Boone - Watauga County Hospital Heliport

Current Time: Jan 22, 2020 at 3:34:07 pm

Latest Report: Jan 22, 2020 at 2:55 pm


Visibility: 10 mi

Pressure: 30.26 "Hg (26.89 "Hg at 961m altitude)

Humidity: 16%

Dew Point: -2 °F

Location of BooneLocation

Past Weather in Boone — Graph

°F

Boone Temperature Yesterday

Maximum temperature yesterday: 29 °F (at 3:15 pm)
Minimum temperature yesterday: 13 °F (at 3:35 am)
Average temperature yesterday: 19 °F

High & Low Weather Summary for the Past Weeks

 TemperatureHumidityPressure
High64 °F (Jan 13, 3:35 pm)100% (Jan 10, 7:35 pm)30.59 "Hg (Jan 10, 7:35 pm)
Low12 °F (Jan 22, 5:15 am)16% (Jan 22, 11:35 am)29.88 "Hg (Jan 19, 4:35 am)
Average40 °F71%30.27 "Hg
* Reported Jan 7 2:15 pm — Jan 22 2:15 pm, Boone. Weather by CustomWeather, © 2020

Note: Actual official high and low records may vary slightly from our data, if they occured in-between our weather recording intervals... More about our weather records

Boone Weather History for the Previous 24 Hours

Scroll right to see more
 ConditionsComfort  
Time TempWeatherWind HumidityBarometerVisibility
2:15 pm
Wed, Jan 22
41 °FQuite cool.No wind20%30.27 "Hg10 mi
1:55 pm40 °FQuite cool.No wind19%30.27 "Hg10 mi
1:35 pm41 °FQuite cool.6 mph19%30.27 "Hg10 mi
1:15 pm41 °FQuite cool.7 mph20%30.28 "Hg10 mi
12:55 pm41 °FQuite cool.8 mph17%30.28 "Hg10 mi
12:35 pm42 °FQuite cool.7 mph16%30.30 "Hg10 mi
12:15 pm41 °FQuite cool.No wind16%30.31 "Hg10 mi
11:55 am40 °FScattered clouds.No wind16%30.32 "Hg10 mi
11:35 am40 °FScattered clouds.No wind16%30.32 "Hg10 mi
11:15 am39 °FChilly.No wind20%30.34 "Hg10 mi
10:55 am36 °FChilly.No wind27%30.34 "Hg10 mi
10:35 am33 °FChilly.No wind36%30.34 "Hg10 mi
10:15 am29 °FChilly.No wind45%30.34 "Hg10 mi
9:55 am25 °FChilly.No wind56%30.33 "Hg10 mi
9:35 am24 °FCold.No wind64%30.33 "Hg10 mi
9:15 am21 °FCold.No wind74%30.33 "Hg10 mi
8:55 am18 °FCold.No wind78%30.34 "Hg10 mi
8:35 am16 °FCold.No wind84%30.35 "Hg10 mi
8:15 am15 °FCold.No wind86%30.34 "Hg10 mi
7:55 am12 °FCold.No wind87%30.34 "Hg10 mi
7:35 am13 °FCold.No wind88%30.33 "Hg10 mi
7:15 am12 °FCold.No wind86%30.33 "Hg10 mi
6:55 am12 °FCold.No wind87%30.32 "Hg10 mi
6:35 am12 °FCold.No wind85%30.32 "Hg10 mi
6:15 am14 °FCold.No wind83%30.31 "Hg10 mi
5:55 am13 °FCold.No wind85%30.32 "Hg10 mi
5:35 am12 °FCold.No wind89%30.31 "Hg10 mi
5:15 am12 °FCold.No wind87%30.30 "Hg10 mi
4:35 am13 °FCold.No wind87%30.29 "Hg10 mi
4:15 am13 °FCold.No wind84%30.29 "Hg10 mi
3:55 am14 °FCold.No wind85%30.29 "Hg10 mi
3:35 am13 °FCold.No wind86%30.30 "Hg10 mi
3:15 am13 °FCold.No wind85%30.31 "Hg10 mi
2:55 am14 °FPassing clouds.No wind81%30.32 "Hg10 mi
2:35 am14 °FPassing clouds.No wind84%30.31 "Hg10 mi
2:15 am15 °FPassing clouds.No wind83%30.30 "Hg10 mi
1:35 am16 °FCold.No wind78%30.28 "Hg10 mi
1:15 am16 °FCold.No wind78%30.29 "Hg10 mi
12:55 am18 °FCold.No wind71%30.29 "Hg10 mi
12:35 am18 °FCold.No wind70%30.30 "Hg10 mi
12:15 am19 °FCold.No wind68%30.31 "Hg10 mi
11:55 pm
Tue, Jan 21
19 °FCold.No wind67%30.32 "Hg10 mi
11:35 pm19 °FCold.No wind67%30.32 "Hg10 mi
10:55 pm19 °FCold.No wind67%30.31 "Hg10 mi
10:35 pm20 °FCold.No wind65%30.32 "Hg10 mi
10:15 pm20 °FCold.No wind65%30.32 "Hg10 mi
9:55 pm20 °FCold.9 mph64%30.32 "Hg10 mi
9:35 pm20 °FCold.6 mph65%30.33 "Hg10 mi
9:15 pm20 °FCold.7 mph64%30.33 "Hg10 mi
8:55 pm20 °FCold.8 mph64%30.32 "Hg10 mi
8:35 pm21 °FCold.8 mph63%30.33 "Hg10 mi
7:55 pm21 °FCold.12 mph60%30.33 "Hg10 mi
7:15 pm22 °FCold.12 mph59%30.32 "Hg10 mi
6:55 pm22 °FCold.12 mph58%30.31 "Hg10 mi
6:35 pm23 °FCold.9 mph56%30.31 "Hg10 mi
6:15 pm24 °FCold.10 mph54%30.32 "Hg10 mi
5:55 pm24 °FCold.13 mph51%30.32 "Hg10 mi
5:35 pm25 °FCold.7 mph51%30.31 "Hg10 mi
5:15 pm26 °FChilly.10 mph49%30.30 "Hg10 mi
4:35 pm28 °FChilly.13 mph44%30.30 "Hg10 mi
4:15 pm28 °FChilly.No wind40%30.29 "Hg10 mi
3:55 pm29 °FChilly.10 mph39%30.29 "Hg10 mi
3:35 pm28 °FChilly.12 mph40%30.29 "Hg10 mi
3:15 pm29 °FChilly.9 mph40%30.29 "Hg10 mi
Weather by CustomWeather, © 2020

See weather overview

Advertising